Location: Unspecified
(0.0000°N, 0.0000°E)
Time: 11:29:16
(UTC+00:00)

Vanguard 2 Rocket - Pass Details

Date: 21 November 2019
Orbit: 554 x 3326 km, 32.9° (Epoch: 08 December)

Event Time Altitude Azimuth Distance (km) Brightness Sun altitude
Rises 19:00:40 0° 229° (SW) 5,877 12.4 -17.5°
Reaches altitude 10° 19:05:21 10° 225° (SW) 4,404 11.4 -18.6°
Maximum altitude 19:15:56 56° 150° (SSE) 1,461 7.8 -21.1°
Enters shadow 19:18:40 35° 92° (E) 1,645 7.7 -21.7°
Drops below altitude 10° 19:21:54 10° 72° (ENE) 2,551 - -22.5°
Sets 19:23:57 0° 68° (ENE) 3,277 - -23.0°
